CZ-6A DEB, 54523

Orbit data source: Space-Track

CZ-6A DEB, 54523 is space debris in SSO originally from a launch on Fri, 11 Nov 2022 UTC launched from the Taiyaun Space Center, China (TSC). Debris objects in space refer to the collection of defunct objects orbiting the Earth. Examples of debris include non-operational satellites, rocket bodies, and fragments generated from explosions, collisions, or faulty payload assembly.

Loading next visibility...
Identifier
54523, 2022-151KB
Orbit
SSO
Country
Flag of CNCN / PRC
Related business
Manufacturer
SAST
Mission
Spacecraft
Bus & Motor
Unknown
Mass
Unknown
Launch date (UTC)
2022-11-11 (4 years ago)
Launch vehicle
Unknown
Launch site
Taiyaun Space Center, China (TSC)
Object type
Payload
Rocket body
Debris
Shape & HBR
Unknown shape, 0.1 m
Radar Cross Section
Medium (>0.1 m² and <1 m²)

Expand to show TLE details & history
Last TLE update: 1 day ago

TLE from 1 day ago
0 CZ-6A DEB
1 54523U 22151KB  26235.27842850  .00032544  00000-0  21681-2 0  9992
2 54523  98.7082 352.3709 0052475 341.1311  18.7967 15.05885900202060
Epoch: 2026-08-23T06:40Z
TLE epoch observation values (Epoch: 2026-08-23T06:40:56.222Z)
Latitude
0.00003°
Longitude
-79.44014°
Altitude
517.421 km
Speed
7.624 km/s
True Right ascension
23h 29m 29s
True Declination
0° 00' 00"
Sunlit
Object was in full shadow at epoch
Visualization orbit readout
Latitude
Unknown
Longitude
Unknown
Altitude
Unknown
Speed
Unknown
Apparent Right ascension
Unknown
Apparent Declination
Unknown
Sunlit
N/A
Visualization observer readout
Local Sidereal Time
02:49:29
Azimuth
Unknown
Elevation
Unknown
Doppler factor
Unknown
Orbital elements
Apogee altitude
582.166 km
Perigee altitude
509.499 km
Semi-major axis
6,923.969 km
Eccentricity
0.00525
Inclination
98.7082°
RAAN
352.3709°
Arg. of periapsis
341.1311°
True anomaly
18.99166°
Mean anomaly
18.7967°
Eccentric anomaly
18.89406°
Mean motion
3.76713 °/min
Orbital period
95.56 mins
BSTAR
0.0021681
Loading maneuver chart data...
Computing Atmospheric mass density...
Loading historical data...
Loading historical data...
Loading historical data...
Loading historical data...
Loading historical data...
Loading historical data...
Loading historical data...

Documentation

Showing up to 5 results
|